This is the latest recevied weather packets stored in our database for station/object K5RWS. If no packets are shown the sender has not sent any weather packets the latest 10 day(s).
| Time | Temp. | Humidity | Pressure | Rain* | Wind** | Luminosity | Snow |
|---|---|---|---|---|---|---|---|
| 1777575950 | 21.67° C | 16% | 1014.9 hPa | 0 mm | - | 764 W/m² | - |
| 1777575646 | 20.56° C | 18% | 1014.9 hPa | 0 mm | - | 753 W/m² | - |
| 1777575342 | 20.56° C | 16% | 1015 hPa | 0 mm | - | 762 W/m² | - |
| 1777575038 | 21.11° C | 16% | 1015.2 hPa | 0 mm | - | 766 W/m² | - |
| 1777574734 | 21.11° C | 17% | 1015.3 hPa | 0 mm | - | 765 W/m² | - |
| 1777574432 | 20.56° C | 16% | 1015.4 hPa | 0 mm | - | 764 W/m² | - |
| 1777574127 | 20.56° C | 18% | 1015.4 hPa | 0 mm | - | 763 W/m² | - |
| 1777573823 | 21.11° C | 17% | 1015.4 hPa | 0 mm | - | 760 W/m² | - |
| 1777573518 | 20.56° C | 16% | 1015.6 hPa | 0 mm | - | 757 W/m² | - |
| 1777573215 | 20.56° C | 17% | 1015.7 hPa | 0 mm | - | 756 W/m² | - |
| 1777572911 | 20.56° C | 17% | 1015.9 hPa | 0 mm | - | 754 W/m² | - |
| 1777572607 | 20.56° C | 15% | 1015.9 hPa | 0 mm | - | 754 W/m² | - |
| 1777572307 | 21.11° C | 17% | 1015.9 hPa | 0 mm | - | 749 W/m² | - |
| 1777572003 | 20° C | 16% | 1016.1 hPa | 0 mm | - | 744 W/m² | - |
| 1777571697 | 20° C | 15% | 1016.1 hPa | 0 mm | - | 740 W/m² | - |
| 1777571396 | 20° C | 14% | 1016.3 hPa | 0 mm | - | 737 W/m² | - |
| 1777571091 | 20° C | 15% | 1016.2 hPa | 0 mm | - | 732 W/m² | - |
| 1777570787 | 20° C | 16% | 1016.2 hPa | 0 mm | - | 727 W/m² | - |
| 1777570483 | 19.44° C | 16% | 1016.3 hPa | 0 mm | - | 721 W/m² | - |
| 1777570179 | 19.44° C | 16% | 1016.6 hPa | 0 mm | - | 714 W/m² | - |
| 1777569876 | 20° C | 15% | 1016.3 hPa | 0 mm | - | 707 W/m² | - |
| 1777569572 | 18.89° C | 16% | 1016.7 hPa | 0 mm | - | 700 W/m² | - |
| 1777569268 | 18.89° C | 16% | 1016.7 hPa | 0 mm | - | 692 W/m² | - |
| 1777568965 | 19.44° C | 17% | 1016.8 hPa | 0 mm | - | 685 W/m² | - |
| 1777568661 | 19.44° C | 17% | 1016.9 hPa | 0 mm | - | 681 W/m² | - |
* Rain latest hour (hover to see other rain measurements)
** Current wind speed in m/s (hover to see current wind gust speed)